Wind_Speed
95 95 95 94 94 94 94 95 95 96 97 98 99 100 101 102 103 104 105 106 106 106 107 108 109 110 111 112 113 115 116 117 118 119 120 121 122 124 125 126 128 129 130 131 132 133 134 135 136 137 138 139 140 140 140 138 136 131 124 115 107 99 92 87 83 80 76 71 66 62 58 54 51 49 46 43 40 38 35 33 31 29 27 26 24 23
95 95 95 95 95 95 95 96 97 97 98 99 100 101 102 102 103 104 105 106 106 107 108 109 110 111 112 113 114 116 117 118 119 120 121 122 124 125 126 128 129 130 131 132 132 133 134 136 137 138 139 140 140 140 139 137 134 128 120 112 103 96 90 85 82 78 74 69 64 60 56 53 50 47 44 42 39 37 34 32 30 28 26 25 24 22
95 95 96 96 96 95 96 97 98 98 99 100 101 101 102 102 103 104 105 106 107 108 109 110 111 112 113 114 115 117 118 119 120 121 123 124 125 126 128 129 130 131 132 132 133 134 135 136 138 139 140 141 141 140 139 136 132 125 117 108 100 93 88 83 80 76 72 67 62 58 55 51 49 46 43 41 38 35 33 31 29 27 26 24 23 22
95 95 96 96 96 97 97 97 98 99 100 101 101 102 102 103 103 104 106 107 108 109 110 111 112 113 114 115 117 118 119 120 121 122 124 125 126 128 129 130 131 132 132 133 134 135 136 137 138 140 140 141 141 140 138 134 129 121 113 104 96 90 86 82 78 74 69 65 60 57 53 50 47 45 42 39 37 34 32 30 28 26 25 24 22 21
96 96 96 97 97 97 98 99 99 100 101 101 102 102 103 103 104 105 106 108 109 110 111 112 113 114 115 116 118 119 120 121 122 124 125 126 128 129 130 131 132 132 133 134 135 136 137 138 139 140 141 141 141 139 136 132 126 118 109 100 93 88 84 80 76 72 67 62 58 55 52 49 46 44 41 38 36 33 31 29 27 26 24 23 22 21
97 97 97 97 97 98 99 99 100 101 101 102 102 103 104 104 105 106 108 109 110 111 112 113 114 115 116 118 119 120 121 122 124 125 126 128 129 130 131 132 133 133 134 135 136 137 138 139 140 141 141 141 140 138 134 129 122 113 104 96 90 85 82 78 74 70 65 60 57 53 51 48 45 43 40 37 34 32 30 28 26 25 24 23 21 20
98 98 98 98 98 99 100 100 101 102 102 103 103 104 105 106 107 108 109 110 111 112 113 114 115 117 118 119 120 121 123 124 125 126 127 129 130 131 132 132 133 134 135 136 137 138 139 140 141 142 142 141 139 136 132 125 118 109 100 93 87 83 80 76 72 68 63 59 55 52 49 47 44 41 39 36 33 31 29 27 25 24 23 22 21 20
99 99 99 99 100 100 101 102 102 103 103 103 104 105 106 107 108 109 110 112 113 114 115 116 117 118 119 120 122 123 124 125 126 128 129 130 131 132 132 133 134 135 136 137 138 139 140 141 142 142 141 140 138 134 128 122 113 105 97 90 85 81 78 74 70 66 61 57 54 50 48 45 43 40 38 35 32 30 28 26 25 24 23 22 21 20
99 99 100 100 101 101 102 103 104 104 104 104 104 105 106 108 109 111 112 113 114 115 116 117 118 120 121 122 123 124 125 126 128 129 130 131 131 132 133 134 135 136 137 138 139 140 141 142 142 142 141 139 136 131 125 117 109 100 93 87 83 79 76 72 68 63 59 55 52 49 47 44 42 39 36 34 31 29 27 25 24 23 22 21 20 19
100 101 101 102 102 103 103 104 104 105 105 105 106 107 108 109 110 112 113 115 116 117 117 118 120 121 122 124 125 126 127 128 129 130 131 131 132 133 134 135 136 137 138 139 140 141 142 142 142 142 140 137 133 128 121 112 104 96 90 85 81 77 73 70 65 61 57 54 51 48 45 43 40 38 35 33 30 28 26 24 23 22 21 21 20 19
102 102 102 103 104 104 104 105 105 106 106 107 108 109 110 111 112 113 114 116 117 118 119 120 121 123 124 125 126 127 128 129 130 131 132 133 134 135 136 137 138 139 140 141 142 142 143 143 142 141 139 135 130 124 116 107 99 92 87 83 79 75 71 67 63 59 56 53 50 47 44 42 39 37 34 32 29 27 25 24 23 22 21 20 19 19
103 103 104 104 105 105 106 106 107 107 108 108 109 110 112 113 114 114 115 117 118 120 121 122 123 124 125 126 127 128 129 130 131 132 133 134 135 136 137 138 139 140 141 142 143 143 143 143 142 140 137 132 126 119 111 102 95 89 84 81 77 73 69 65 61 57 54 51 48 46 43 41 38 35 33 31 28 26 25 23 22 21 21 20 19 19
104 104 105 105 106 106 106 107 108 109 109 110 110 111 113 114 115 116 117 118 120 121 123 124 125 126 127 128 128 129 130 131 132 133 134 135 136 138 138 139 141 141 142 143 143 144 143 142 141 138 134 129 122 114 106 98 91 86 82 79 75 72 67 63 58 55 52 49 47 45 42 39 37 34 32 30 27 26 24 23 22 21 20 20 19 19
105 106 106 106 107 107 108 108 109 110 111 111 112 113 114 115 117 118 119 120 122 123 125 125 126 127 128 129 130 131 131 133 134 135 136 137 138 139 140 141 142 143 143 144 144 144 143 141 139 136 131 124 117 109 101 94 88 83 80 77 74 70 65 61 56 53 50 48 45 43 41 38 35 33 31 29 27 25 24 23 22 21 20 19 19 19
106 107 107 107 108 109 109 110 110 111 112 113 114 115 116 117 118 120 121 122 124 125 126 127 128 129 130 131 131 132 133 134 135 137 138 139 140 141 141 142 143 144 144 144 144 143 142 140 137 132 127 119 112 104 96 90 85 81 78 75 72 68 63 59 54 51 48 46 44 42 39 37 34 32 30 28 26 24 23 22 21 20 20 19 19 19
107 107 108 108 109 110 111 111 112 113 114 115 116 117 118 119 120 122 123 124 125 126 127 128 129 130 132 133 134 134 135 136 137 138 139 140 141 142 143 143 144 145 145 145 144 143 141 138 134 128 121 114 106 99 92 87 82 79 76 73 70 66 61 57 53 49 47 45 43 40 38 35 33 31 28 27 25 24 23 22 21 20 20 19 19 19
108 109 109 109 110 111 112 113 114 115 116 117 118 119 120 121 122 123 124 126 127 128 128 129 131 132 133 134 136 136 137 138 139 140 141 142 143 144 144 144 145 145 145 144 143 141 139 135 130 123 116 108 101 94 89 84 80 77 74 71 68 63 59 55 51 48 46 44 42 39 37 34 32 30 28 26 25 23 22 21 21 20 20 19 19 19
110 110 110 111 112 113 114 115 116 117 118 119 120 121 122 123 124 125 126 127 128 129 130 131 132 133 135 136 137 138 139 139 140 141 142 143 144 145 146 146 145 145 145 144 142 140 136 131 125 118 110 103 96 90 85 81 78 75 72 69 66 61 57 53 50 47 44 42 40 38 36 33 31 29 27 25 24 23 22 21 21 20 20 20 20 19
111 112 112 113 114 115 116 117 118 119 119 120 122 123 124 125 126 126 127 128 130 131 132 133 134 135 136 137 138 139 140 141 141 142 144 145 145 146 146 146 146 145 144 143 140 137 132 126 119 112 105 98 92 87 82 79 76 73 70 67 63 59 55 52 48 45 43 41 39 37 35 32 30 28 26 24 23 22 22 21 20 20 20 20 20 20
113 113 114 115 116 117 118 119 120 121 121 122 123 124 125 126 127 128 129 130 131 133 134 135 136 137 138 139 140 141 142 142 143 144 145 146 147 147 147 146 145 144 143 141 138 133 128 121 114 107 100 94 88 84 80 77 74 71 68 65 61 57 53 50 47 44 42 40 38 36 34 31 29 27 25 24 23 22 21 21 21 20 20 20 20 20
114 115 116 117 118 118 120 121 122 123 123 124 125 126 127 128 129 130 131 132 134 135 136 137 138 138 140 140 141 142 143 144 145 145 147 147 148 148 147 146 145 143 141 138 134 129 122 115 108 102 95 90 85 81 78 75 72 69 66 62 59 55 52 49 46 43 41 39 37 35 33 31 28 26 25 23 22 22 21 21 21 21 21 21 21 21
116 117 118 119 120 120 121 122 123 124 125 126 127 128 129 130 131 132 134 134 135 136 137 138 139 140 141 142 143 144 145 146 146 147 147 148 148 148 147 146 144 141 138 135 129 123 116 109 103 97 91 86 82 78 75 73 70 67 64 60 56 53 50 47 45 43 40 38 36 34 32 30 28 26 24 23 22 22 21 21 21 21 21 21 22 22
118 119 120 121 122 123 124 125 126 126 127 128 129 130 131 132 133 134 135 136 137 138 139 140 141 142 143 144 145 146 147 147 148 148 148 148 148 147 146 144 142 139 135 130 124 117 110 104 98 92 87 83 79 76 73 71 68 65 61 57 54 51 48 46 44 41 39 37 35 33 31 29 28 26 24 23 22 22 22 22 22 22 22 22 22 22
121 122 123 124 124 125 126 127 128 129 130 131 132 133 133 134 135 136 137 138 139 140 141 142 144 145 146 147 147 148 148 149 149 148 148 148 147 146 145 142 139 135 130 125 118 111 105 99 93 88 84 80 77 74 71 69 66 62 59 55 52 49 46 44 42 40 38 37 35 33 31 29 27 26 24 23 22 22 22 22 22 22 23 23 23 23
124 125 125 126 127 128 129 130 130 131 132 133 134 135 136 136 137 138 140 141 142 143 144 145 146 147 148 149 149 149 149 150 149 148 147 147 146 145 143 140 136 131 125 119 112 105 99 94 89 85 81 78 75 72 69 67 63 60 57 53 50 47 45 43 41 39 37 36 34 32 30 29 27 26 24 23 23 22 22 23 23 23 23 24 24 24
126 127 128 129 130 130 131 132 133 133 134 135 136 137 138 139 140 141 142 144 145 146 147 148 149 150 150 150 150 150 150 150 149 148 147 145 144 142 140 137 131 125 119 113 106 100 95 90 86 82 78 76 73 70 67 64 61 58 54 51 48 46 44 42 40 39 37 35 33 31 30 28 27 26 24 24 23 23 23 23 23 24 24 25 25 25
129 129 130 131 132 132 133 134 134 135 136 137 138 139 140 141 143 144 145 147 147 148 149 150 150 151 151 151 151 150 150 149 148 147 146 144 142 139 136 132 126 119 113 107 101 96 91 87 83 79 76 74 71 68 65 62 59 55 52 49 47 44 43 41 39 38 36 34 33 31 29 28 27 26 25 24 23 23 23 24 24 25 25 25 26 26
131 131 132 133 133 134 135 135 136 137 138 139 141 142 143 144 145 147 148 149 149 150 150 151 151 151 151 151 151 150 149 148 147 146 144 142 139 136 132 126 119 113 107 102 96 92 87 83 80 77 74 72 69 66 63 60 56 53 50 47 45 43 42 40 39 37 35 34 32 31 29 28 27 26 25 24 24 24 24 24 25 25 26 26 27 27
133 133 134 134 135 136 137 138 139 140 141 143 144 145 146 147 148 149 149 150 150 151 151 151 152 152 152 151 151 150 149 148 146 144 142 138 135 131 126 120 113 107 102 97 92 88 84 81 78 75 72 70 67 64 61 58 54 51 48 46 44 42 41 40 38 36 35 33 32 31 29 28 27 26 25 25 24 24 24 25 25 26 27 27 28 28
135 135 136 137 138 139 140 141 143 144 145 146 147 148 149 149 150 150 151 151 151 151 151 152 152 152 152 151 150 150 149 147 145 142 138 134 130 125 119 113 107 102 97 93 89 85 82 79 76 73 70 68 65 62 59 55 52 49 46 44 43 42 40 39 37 36 35 33 32 31 29 28 27 26 25 25 25 25 25 26 26 27 28 28 29 29
138 139 140 141 142 143 144 145 147 147 148 149 150 150 151 151 151 151 152 152 152 152 151 152 152 152 151 151 149 148 147 145 142 139 134 129 124 119 113 107 102 97 92 88 85 82 80 77 74 71 69 66 63 60 57 53 50 47 45 43 42 41 40 38 37 36 34 33 32 31 30 29 28 27 26 26 25 25 26 26 27 28 29 29 30 30
142 143 144 145 146 147 148 148 149 150 150 151 151 152 152 152 152 152 152 152 152 152 152 152 152 151 151 150 148 146 144 141 138 134 128 123 117 112 107 102 97 93 89 85 82 80 77 75 73 70 67 64 61 58 54 51 49 46 44 43 41 40 39 38 36 35 34 33 32 31 30 29 28 27 27 26 26 26 26 27 28 29 29 30 31 31
146 147 147 148 149 149 150 150 151 151 152 152 152 153 153 153 153 153 153 153 153 152 152 151 151 150 149 148 146 143 140 137 132 127 122 116 111 106 102 97 93 89 86 82 80 77 75 73 71 68 65 62 58 55 52 50 47 45 43 42 41 40 39 37 36 35 34 33 32 31 30 29 29 28 27 27 27 27 27 28 28 29 30 31 32 32
148 149 150 150 150 151 151 152 152 152 153 153 153 153 154 154 154 154 153 153 153 152 151 150 149 148 146 144 142 139 135 131 126 121 115 110 106 101 97 93 89 86 83 80 78 76 74 72 69 66 63 60 57 53 51 48 46 45 43 42 40 39 38 37 36 35 34 33 32 31 30 30 29 29 28 28 28 28 28 29 29 30 31 32 33 33
150 150 151 151 152 152 153 153 153 154 154 154 154 154 154 154 154 154 153 153 153 152 151 149 147 145 142 139 136 133 129 125 120 115 110 105 101 96 93 89 86 83 80 78 76 74 72 70 68 65 61 58 55 52 49 47 46 44 43 42 40 39 38 37 36 34 33 33 32 31 31 30 30 30 29 29 29 29 29 30 30 31 32 33 33 34
151 152 152 153 153 153 154 154 154 154 154 154 154 154 154 154 154 153 153 152 151 150 149 147 144 141 137 133 130 126 122 118 114 109 104 100 96 92 89 86 83 80 78 76 74 72 70 68 66 63 59 56 53 51 48 47 45 44 43 42 40 39 38 36 35 34 33 33 32 31 31 31 30 30 30 30 30 30 30 31 31 32 33 33 34 35
152 153 153 153 154 154 154 155 155 155 155 155 155 154 154 154 153 153 152 151 149 147 145 142 139 136 132 128 124 120 116 112 108 104 100 96 92 89 86 83 81 78 76 74 72 70 68 66 64 61 58 54 52 49 48 46 45 44 43 42 40 39 38 36 35 34 33 33 32 32 31 31 31 31 31 31 31 31 31 32 32 33 34 34 35 36
153 153 154 154 154 155 155 155 155 155 155 154 154 154 153 153 152 151 149 148 145 143 139 136 133 129 126 122 118 115 111 107 103 99 96 92 89 86 84 81 79 77 74 72 70 68 66 64 61 59 56 53 51 48 47 46 45 44 43 42 40 39 38 36 35 34 34 33 32 32 31 31 31 31 31 32 32 32 32 33 33 34 34 35 36 37
153 154 154 154 154 155 155 155 155 155 154 154 153 153 152 151 149 148 145 143 140 137 133 130 126 123 120 116 113 109 106 102 99 95 92 89 86 84 81 79 77 75 73 70 68 66 64 61 59 57 54 52 50 48 47 46 45 44 43 42 41 39 38 37 35 35 34 33 33 32 32 32 32 32 32 32 33 33 33 34 34 35 36 36 37 38
153 154 154 154 154 154 154 154 154 154 153 153 152 151 149 147 145 143 140 137 134 131 127 124 121 118 114 111 108 104 101 98 95 92 89 86 84 82 80 77 75 73 71 69 66 64 61 59 57 55 52 51 49 48 47 46 45 44 43 42 41 40 38 37 36 35 34 34 33 33 32 32 32 32 32 33 33 34 34 35 35 36 37 38 38 39
154 154 154 155 155 155 154 154 154 153 152 150 149 147 145 142 139 136 134 131 128 125 122 119 116 113 110 107 103 100 97 94 91 89 86 84 82 80 78 76 74 72 69 67 64 62 59 57 55 53 51 50 49 48 47 46 45 44 43 42 41 40 39 37 36 36 35 34 34 33 33 33 33 33 33 33 34 34 35 36 36 37 38 38 39 40
156 155 155 155 155 154 154 153 152 150 149 147 144 141 139 136 133 130 127 124 122 119 116 113 111 108 105 102 99 96 94 91 88 86 84 82 80 78 76 74 72 70 67 65 62 60 58 55 53 52 50 49 48 47 47 46 45 44 43 42 41 40 39 38 37 36 36 35 35 34 34 34 33 33 33 34 34 35 36 36 37 38 39 39 40 41
156 156 155 154 154 152 151 150 148 146 144 141 138 136 133 130 127 124 122 119 117 114 112 109 106 104 101 98 96 93 91 88 86 84 82 80 79 77 75 73 70 68 65 63 60 58 56 54 52 51 50 49 48 47 47 46 45 44 43 42 41 41 40 39 38 37 36 36 35 35 35 34 34 34 34 34 35 35 36 37 38 39 39 40 41 42
154 154 153 152 151 149 147 145 143 140 138 135 132 130 127 124 122 119 117 114 112 110 107 105 102 100 97 95 93 90 88 86 84 82 81 79 77 75 73 71 68 66 63 61 58 57 55 53 52 51 49 48 48 47 46 46 45 44 43 42 42 41 40 40 39 38 37 37 36 36 36 35 35 35 35 35 35 36 36 37 38 39 40 41 41 42
151 150 149 147 146 144 141 139 137 135 132 129 127 124 122 119 117 114 112 110 108 105 103 101 98 96 94 92 90 88 86 84 82 81 79 77 75 73 71 69 66 64 61 59 57 55 54 53 51 50 49 48 47 47 46 45 44 44 43 43 42 42 41 40 40 39 39 38 37 37 37 36 36 36 36 36 36 37 37 38 38 39 40 41 42 43
147 146 144 142 140 138 136 134 131 129 126 124 122 119 117 115 112 110 108 106 103 101 99 97 95 93 91 90 88 86 84 82 81 79 77 75 73 72 69 67 64 62 59 57 56 54 53 52 51 50 49 48 48 47 46 45 44 44 43 43 42 42 42 41 40 40 39 39 39 38 38 37 37 37 38 38 37 38 38 38 39 39 40 41 42 43
142 140 138 137 135 132 130 128 126 124 122 119 117 115 113 110 108 106 104 102 100 98 96 94 92 91 89 88 86 84 82 80 79 77 75 73 71 70 67 65 63 60 58 56 55 54 53 52 51 50 49 48 48 47 46 45 44 44 43 43 43 42 42 42 41 41 40 40 40 39 39 39 39 39 39 39 39 39 39 39 39 40 40 41 42 43
136 135 133 131 129 127 125 123 121 119 117 115 113 111 109 106 104 102 100 98 97 95 93 92 90 89 87 85 84 82 80 78 76 75 73 71 69 67 66 63 61 59 57 56 54 53 52 51 51 50 49 48 48 47 46 45 44 44 43 43 43 43 43 42 42 42 41 41 41 41 40 40 40 40 40 40 40 40 40 40 40 40 41 41 42 43
131 129 127 126 124 122 121 119 117 115 113 111 109 107 105 103 101 99 97 95 94 92 91 89 88 86 85 83 82 80 78 76 74 72 70 69 67 65 64 62 60 59 57 55 54 53 52 51 51 50 49 48 48 47 46 46 45 44 44 43 43 43 43 43 42 42 42 42 42 42 41 41 41 41 41 41 41 41 41 41 41 41 42 42 42 42
126 124 123 121 120 118 116 115 113 111 109 107 106 104 102 100 98 96 94 93 91 90 88 87 86 84 83 81 79 77 76 74 72 70 68 67 65 64 62 61 60 58 57 55 54 53 52 51 51 50 49 48 48 47 47 46 45 45 44 44 43 43 43 43 43 43 43 43 43 43 43 42 42 42 42 42 43 43 43 43 43 43 42 42 42 43
122 120 119 117 116 114 112 111 109 107 106 104 102 100 99 97 95 94 92 91 89 88 86 85 83 82 80 79 77 75 73 72 70 68 67 65 64 62 61 60 59 58 57 55 54 53 52 51 51 50 49 48 48 47 47 46 46 45 45 44 44 43 43 43 43 43 43 43 43 43 43 43 44 44 44 44 44 44 44 44 44 44 44 43 43 43
Wind_Direction
297 297 298 298 298 298 298 298 297 298 298 298 299 299 300 301 302 303 304 305 305 306 307 308 309 309 310 311 311 312 313 313 314 315 315 316 316 317 317 318 319 319 320 320 321 321 322 322 323 323 324 324 325 326 326 327 328 328 328 328 327 326 326 325 324 324 323 322 322 321 320 319 318 317 316 315 313 310 308 305 302 299 296 292 288 285
297 297 297 297 297 297 297 297 297 297 298 298 299 299 300 301 302 303 304 304 305 306 307 308 308 309 310 310 311 312 312 313 313 314 315 315 316 316 317 318 318 319 320 320 321 321 321 322 322 323 323 324 325 326 326 327 327 328 328 327 326 326 325 325 324 323 323 322 321 321 320 319 318 317 316 314 312 310 307 304 301 297 294 291 287 284
296 296 296 296 296 296 297 297 297 297 298 298 299 299 300 301 302 302 303 304 305 306 306 307 308 308 309 310 310 311 312 312 313 314 314 315 315 316 317 317 318 319 319 320 320 321 321 321 322 323 323 324 325 325 326 327 327 327 327 327 326 325 325 324 324 323 323 322 321 321 320 319 318 316 315 313 311 309 306 303 300 296 293 289 286 282
295 295 295 296 296 296 296 296 297 297 298 298 299 299 300 301 301 302 303 304 304 305 306 307 307 308 309 309 310 311 311 312 313 313 314 314 315 316 316 317 318 318 319 319 320 320 320 321 322 322 323 324 324 325 326 326 327 327 326 326 325 325 324 324 323 323 322 322 321 320 319 318 317 316 314 312 310 307 304 301 298 294 291 288 284 280
295 295 295 295 295 296 296 296 297 297 297 298 299 299 300 300 301 302 303 303 304 305 305 306 307 307 308 309 310 310 311 312 312 313 314 314 315 315 316 317 317 318 318 319 319 319 320 321 321 322 323 324 324 325 326 326 326 326 326 325 325 324 324 324 323 323 322 322 321 320 319 318 317 315 313 311 309 306 303 300 296 293 290 286 282 279
294 294 294 294 294 295 295 296 296 296 297 297 298 299 299 300 301 301 302 303 303 304 305 306 306 307 308 309 309 310 311 311 312 313 313 314 315 315 316 316 317 317 318 318 319 319 319 320 321 322 323 323 324 325 325 326 326 326 325 325 324 324 324 324 323 322 322 321 321 320 319 317 316 314 312 310 308 305 302 298 295 291 288 284 281 277
293 293 293 293 294 294 295 295 295 296 296 297 298 298 299 299 300 301 301 302 303 304 304 305 306 307 307 308 309 310 310 311 312 312 313 314 314 315 315 316 316 317 317 317 318 318 319 320 321 322 322 323 324 325 325 325 325 325 325 324 324 324 324 323 323 322 321 321 320 319 318 316 315 313 311 309 306 303 300 296 293 289 286 282 279 275
292 292 293 293 293 294 294 294 295 295 296 296 297 298 298 299 300 300 301 302 303 303 304 305 306 306 307 308 309 309 310 311 311 312 313 313 314 314 315 315 316 316 316 317 317 318 319 320 321 321 322 323 324 324 325 325 325 324 324 324 324 324 323 323 322 322 321 320 319 318 317 316 314 312 310 307 305 301 298 295 291 287 284 280 277 272
291 292 292 292 293 293 293 294 295 295 296 296 296 297 298 298 299 300 301 301 302 303 304 305 305 306 307 308 308 309 310 310 311 312 312 313 313 314 314 315 315 315 316 316 317 318 319 320 320 321 322 323 324 324 324 324 324 324 323 323 323 323 323 323 322 321 320 320 319 318 316 315 313 310 308 306 303 300 296 292 289 285 282 278 274 270
291 291 291 292 292 293 293 293 294 295 295 296 296 297 297 298 298 299 300 301 302 303 304 304 305 306 307 307 308 309 309 310 311 311 312 312 313 313 314 314 314 315 315 316 317 318 318 319 320 321 322 323 323 324 324 324 323 323 323 323 323 323 323 322 322 321 320 319 318 317 315 314 311 309 307 304 301 298 294 290 286 283 279 276 272 267
290 291 291 291 292 293 293 293 294 294 295 295 296 296 297 298 298 299 300 301 302 302 303 304 305 306 306 307 308 308 309 310 310 311 311 312 312 313 313 313 314 314 315 316 317 317 318 319 320 321 322 322 323 323 323 323 323 322 322 322 322 323 323 322 321 320 319 318 317 316 314 312 310 308 305 302 299 296 292 288 284 280 277 273 269 265
290 290 291 291 292 292 293 293 294 294 295 295 295 296 297 297 298 299 299 300 301 302 303 304 304 305 306 307 307 308 309 309 310 310 311 311 312 312 312 313 313 314 315 315 316 317 318 319 320 321 322 322 323 323 323 322 322 322 322 322 322 322 322 321 321 319 318 317 316 315 313 311 309 306 303 300 297 293 289 286 282 278 275 271 267 262
289 290 290 291 291 292 292 292 293 293 294 294 295 295 296 297 298 299 299 300 301 302 303 303 304 305 306 306 307 308 308 309 309 310 310 311 311 311 312 312 313 314 314 315 316 317 318 319 320 321 321 322 322 322 322 322 321 321 321 322 322 322 322 321 320 318 317 316 315 313 312 310 307 304 301 298 295 291 288 284 280 276 272 268 264 260
289 289 290 290 291 291 292 292 292 293 293 294 294 295 296 297 297 298 299 300 301 301 302 303 304 305 305 306 307 307 308 308 309 309 310 310 310 311 312 312 313 314 314 315 316 317 318 319 320 320 321 321 322 322 321 321 321 321 321 321 321 321 321 320 319 318 316 315 313 312 310 308 305 302 299 296 293 289 285 282 278 274 270 266 262 258
288 289 289 290 290 290 291 291 292 292 293 293 294 295 296 296 297 298 299 300 300 301 302 303 304 304 305 305 306 307 307 308 308 309 309 309 310 310 311 312 313 313 314 315 316 317 318 319 320 320 321 321 321 321 321 320 320 320 321 321 321 321 320 319 318 317 315 314 312 311 309 307 304 301 297 294 291 287 284 280 276 272 268 263 260 256
288 288 289 289 289 290 290 291 291 292 292 293 294 295 295 296 297 298 299 299 300 301 302 302 303 304 304 305 305 306 307 307 308 308 309 309 310 310 311 312 313 313 314 315 316 317 318 319 319 320 320 320 320 320 320 320 320 320 320 320 320 320 319 318 317 316 314 313 311 310 308 305 303 299 296 292 289 285 282 278 274 269 265 261 258 255
287 288 288 288 289 289 290 290 291 292 292 293 294 295 295 296 297 298 298 299 300 301 301 302 303 303 304 305 305 305 306 307 307 308 308 309 309 310 311 312 313 313 314 315 316 317 318 318 319 319 320 320 320 319 319 319 319 320 320 320 320 319 318 317 316 315 313 312 310 309 307 304 301 298 294 290 287 283 280 276 272 267 263 259 256 253
286 287 287 288 288 289 289 290 291 291 292 293 294 294 295 296 297 297 298 299 299 300 301 301 302 303 303 304 305 305 305 306 307 307 308 308 309 310 310 312 313 313 314 315 316 317 318 318 318 319 319 319 319 319 319 319 319 319 319 319 319 318 317 316 315 314 312 311 309 308 305 303 300 296 292 289 285 282 278 274 270 265 261 258 255 253
286 286 287 287 288 288 289 290 290 291 292 293 293 294 295 296 296 297 298 298 299 300 300 301 302 302 303 303 304 304 305 306 306 307 307 308 309 310 311 312 313 314 314 315 316 317 317 318 318 318 318 318 318 318 318 318 319 319 319 318 318 317 316 315 314 312 311 310 308 306 304 301 298 294 291 287 283 279 276 272 268 263 259 256 254 252
285 286 286 287 288 288 289 290 290 291 292 292 293 294 294 295 296 296 297 298 299 299 300 301 301 302 302 303 304 304 305 305 306 307 307 308 309 310 311 312 313 314 314 315 316 316 317 317 317 318 318 318 318 318 318 318 318 318 318 317 317 316 314 313 312 311 310 308 307 305 303 300 296 293 289 285 281 278 274 270 266 261 257 255 252 251
285 285 286 287 287 288 289 289 290 291 292 292 293 293 294 295 295 296 297 298 298 299 300 300 301 302 302 303 303 304 304 305 306 306 307 308 309 310 311 312 313 314 314 315 315 316 316 317 317 317 317 317 317 317 317 318 318 317 317 316 315 314 313 312 311 310 309 307 305 303 301 298 294 291 287 283 279 275 272 268 264 260 256 253 252 251
285 285 286 287 287 288 288 289 290 291 291 292 292 293 294 294 295 296 297 297 298 299 299 300 301 301 302 302 303 303 304 305 306 306 307 308 309 310 311 312 313 313 314 315 315 315 316 316 316 316 316 316 317 317 317 317 317 316 316 315 314 313 311 311 310 309 307 306 304 302 299 296 293 289 285 281 277 273 270 266 262 258 255 252 251 251
284 285 286 286 287 288 288 289 289 290 291 291 292 293 294 294 295 296 297 297 298 298 299 300 300 301 301 302 302 303 304 305 305 306 307 308 309 310 311 312 313 313 314 314 315 315 315 315 315 315 316 316 316 316 316 316 316 315 315 314 312 311 310 309 308 307 306 304 302 300 297 294 291 287 283 279 275 271 268 264 260 257 254 252 251 251
284 285 285 286 287 287 288 288 289 290 291 291 292 293 293 294 295 296 296 297 297 298 299 299 300 300 301 302 302 303 304 305 305 306 307 308 309 310 311 312 312 313 313 314 314 314 314 315 315 315 315 315 315 315 315 315 315 314 313 312 311 309 308 307 306 305 304 302 300 298 295 292 288 284 280 277 273 269 266 262 259 256 253 252 251 250
284 285 285 286 286 287 288 288 289 290 291 291 292 293 293 294 295 295 296 297 297 298 298 299 300 300 301 302 302 303 304 305 305 306 307 308 309 310 311 311 312 313 313 313 313 313 314 314 314 314 314 314 315 315 314 314 313 313 312 310 309 308 306 305 304 303 302 300 298 296 293 290 286 282 278 275 271 267 264 261 258 256 253 252 251 250
284 285 285 286 286 287 288 288 289 290 291 291 292 293 293 294 295 295 296 296 297 298 298 299 299 300 301 301 302 303 304 305 305 306 307 308 309 310 310 311 312 312 312 312 313 313 313 313 313 313 314 314 314 314 314 313 312 311 310 309 307 306 304 304 303 301 300 298 296 294 291 287 284 280 276 272 269 265 262 260 257 255 253 252 251 251
284 284 285 286 286 287 288 288 289 290 291 291 292 293 293 294 295 295 296 296 297 297 298 299 299 300 301 301 302 303 304 305 306 306 307 308 309 310 310 311 311 311 312 312 312 312 312 312 313 313 313 313 313 313 312 312 311 310 308 307 305 304 303 302 301 300 298 296 294 291 288 285 282 278 274 271 267 264 261 258 256 255 253 252 251 250
284 285 285 286 286 287 288 289 289 290 291 291 292 292 293 294 294 295 296 296 297 297 298 299 299 300 301 301 302 303 304 305 306 306 307 308 309 309 310 310 310 311 311 311 311 311 311 312 312 312 312 312 312 312 311 310 309 308 306 305 303 302 301 300 299 298 296 294 292 289 286 283 279 276 272 269 265 262 260 257 256 254 253 252 251 251
284 285 285 286 286 287 288 288 289 290 290 291 292 292 293 294 294 295 296 296 297 297 298 299 299 300 301 302 302 303 304 305 306 306 307 308 309 309 309 310 310 310 310 310 311 311 311 311 311 311 311 311 311 310 310 309 308 306 304 303 302 300 299 298 297 296 294 292 290 287 284 281 277 274 270 267 264 261 258 256 255 254 253 252 251 251
284 285 285 286 286 287 288 288 289 290 290 291 292 292 293 294 294 295 296 296 297 298 298 299 299 300 301 302 302 303 304 305 305 306 307 308 308 308 309 309 309 309 309 310 310 310 310 310 310 310 310 310 310 309 308 307 306 304 303 301 300 299 298 297 296 294 293 291 288 286 283 279 275 272 269 265 262 259 257 255 254 253 252 252 252 251
284 285 285 286 286 287 288 288 289 290 290 291 292 292 293 294 294 295 296 296 297 298 298 299 300 300 301 302 303 303 304 304 305 306 307 307 307 308 308 308 308 309 309 309 309 309 309 309 309 309 309 309 308 307 306 305 304 302 301 299 298 297 296 295 294 292 291 289 287 284 281 277 274 270 267 264 260 258 256 254 253 252 252 252 252 251
284 285 285 286 287 287 288 288 289 290 290 291 292 292 293 294 294 295 296 296 297 298 299 299 300 300 301 302 302 303 304 304 305 306 306 307 307 307 307 308 308 308 308 308 308 308 308 308 309 308 308 307 306 306 304 303 302 300 299 298 297 296 295 293 292 291 289 287 285 282 279 276 273 269 266 262 259 257 254 253 252 252 252 252 251 251
284 285 285 286 287 287 288 289 289 290 290 291 292 292 293 294 294 295 296 296 297 298 299 299 300 301 301 302 302 303 303 304 305 305 306 306 306 306 307 307 307 307 307 307 307 307 307 307 307 307 307 306 305 304 302 301 300 299 298 296 295 294 293 292 290 289 287 285 283 281 278 275 272 268 265 261 258 256 253 252 251 251 251 251 251 252
285 285 286 286 287 287 288 289 289 290 290 291 292 292 293 294 294 295 296 296 297 298 298 299 300 300 301 302 302 303 303 304 304 305 305 305 306 306 306 306 306 306 307 307 307 307 306 306 306 306 305 305 303 302 301 300 298 297 296 295 294 293 292 290 289 287 286 284 282 280 277 274 271 267 264 260 257 255 253 251 250 250 251 251 251 251
285 285 286 286 287 287 288 288 289 290 290 291 291 292 293 294 294 295 296 296 297 298 298 299 300 300 301 301 302 302 303 303 304 304 305 305 305 305 305 305 305 306 306 306 306 306 305 305 305 304 304 303 302 300 299 298 297 296 295 294 293 292 291 289 287 286 284 282 280 278 276 273 270 267 263 260 257 254 252 250 250 249 250 250 251 251
285 285 286 286 287 287 288 288 289 289 290 291 291 292 293 294 294 295 296 296 297 298 298 299 299 300 301 301 302 302 302 303 303 304 304 304 304 304 304 305 305 305 305 305 305 305 304 304 304 303 302 301 300 299 298 296 295 295 294 293 292 291 289 288 286 284 283 281 279 277 275 272 269 266 263 260 257 254 252 250 249 249 249 249 250 251
285 285 286 286 287 287 288 288 289 290 290 291 292 292 293 294 295 295 296 297 297 298 298 299 299 300 300 301 301 302 302 302 303 303 303 303 304 304 304 304 304 304 304 304 304 303 303 303 302 301 301 299 298 297 296 295 294 293 293 292 291 290 288 286 285 283 281 279 278 276 274 271 269 266 263 260 257 254 252 250 249 248 248 248 249 250
285 285 286 286 287 287 288 288 289 290 291 291 292 293 293 294 295 295 296 297 297 298 298 299 299 299 300 300 301 301 302 302 302 302 303 303 303 303 303 303 303 303 303 303 303 302 302 301 300 300 299 298 297 295 294 294 293 292 291 291 290 288 287 285 283 282 280 278 276 274 273 271 268 266 263 260 257 254 252 250 248 248 247 248 248 249
285 285 286 286 287 288 288 289 290 290 291 292 292 293 294 294 295 295 296 296 297 297 298 298 299 299 300 300 300 301 301 301 301 302 302 302 302 302 302 302 302 302 302 302 301 301 300 299 299 298 297 296 295 294 293 292 292 291 290 290 289 287 286 284 282 280 278 277 275 273 271 270 268 266 263 260 258 255 252 250 248 247 247 247 247 248
285 286 286 287 287 288 289 289 290 291 291 292 293 293 294 294 295 295 296 296 297 297 297 298 298 299 299 299 300 300 300 301 301 301 301 301 301 301 301 301 301 301 301 301 300 300 299 298 297 296 295 294 294 293 292 291 291 290 289 288 287 286 285 283 281 279 277 275 274 272 270 269 267 265 263 261 258 256 253 251 249 248 247 246 247 247
286 286 287 287 288 289 289 290 290 291 292 292 293 293 294 294 295 295 296 296 296 297 297 297 298 298 299 299 299 299 300 300 300 300 300 300 300 300 300 300 300 300 300 300 299 298 297 296 296 295 294 293 293 292 291 291 290 289 288 287 286 285 284 282 280 278 276 274 272 271 269 268 266 265 263 261 259 257 254 252 250 248 247 246 246 247
286 286 287 288 288 289 290 290 291 291 292 292 293 293 294 294 295 295 295 295 296 296 297 297 297 298 298 298 298 299 299 299 299 299 299 299 299 299 299 299 299 299 299 298 298 297 296 295 294 293 293 292 291 291 290 290 289 288 287 286 285 284 282 280 279 277 275 273 271 270 268 267 266 264 263 261 259 257 255 253 251 250 248 247 246 246
286 287 287 288 289 289 290 290 291 291 292 292 293 293 293 294 294 294 295 295 295 296 296 296 297 297 297 297 297 298 298 298 298 298 298 298 298 298 298 299 298 298 298 297 296 295 295 294 293 292 291 291 291 290 289 289 288 287 286 284 283 282 280 279 278 276 274 272 270 269 267 266 265 264 263 261 260 258 256 254 253 251 249 248 247 246
287 287 288 288 289 289 290 290 291 291 292 292 292 293 293 293 294 294 294 294 295 295 295 296 296 296 296 296 296 297 297 297 297 297 297 297 297 297 297 297 297 297 296 296 295 294 293 293 292 291 291 290 290 289 289 288 287 286 285 283 282 281 279 278 277 275 273 271 270 268 266 265 264 263 262 261 260 258 257 255 254 252 251 249 248 247
287 287 288 288 289 289 290 290 290 291 291 292 292 292 292 293 293 293 293 294 294 294 295 295 295 295 295 295 295 296 296 296 296 296 296 296 296 296 296 296 296 296 295 294 293 293 292 291 291 290 290 289 289 288 287 287 286 285 284 282 281 279 278 277 276 274 272 271 269 267 266 264 263 262 261 260 260 259 257 256 255 253 252 251 249 248
287 287 288 288 289 289 289 290 290 290 291 291 291 291 292 292 292 292 293 293 293 293 294 294 294 294 294 294 294 295 295 295 295 295 295 295 295 295 295 295 295 294 294 293 292 291 291 290 290 289 289 289 288 287 287 286 285 284 282 281 280 279 277 276 275 273 272 270 269 267 266 264 263 262 261 260 260 259 258 257 256 254 253 252 250 249
287 287 287 288 288 289 289 289 290 290 290 290 291 291 291 291 291 292 292 292 292 292 292 293 293 293 293 293 293 294 294 294 294 294 294 294 294 294 294 294 293 293 292 292 291 290 290 289 289 288 288 288 287 287 286 285 284 282 281 280 279 278 277 275 274 273 272 270 269 267 266 264 263 261 260 260 259 259 258 257 256 255 254 253 252 251
286 287 287 287 288 288 288 289 289 289 289 290 290 290 290 290 291 291 291 291 291 291 291 291 292 292 292 292 292 293 293 293 293 293 293 293 293 293 293 293 292 292 291 291 290 289 289 288 288 288 287 287 287 286 285 284 283 281 280 279 278 277 276 275 274 272 271 270 268 267 266 264 263 262 261 260 259 259 258 257 257 256 255 254 253 252
286 286 287 287 287 288 288 288 288 289 289 289 289 289 289 290 290 290 290 290 290 290 290 290 291 291 291 291 291 292 292 292 292 292 292 292 292 292 292 291 291 291 290 290 289 288 288 287 287 287 286 286 286 285 284 283 282 281 280 278 277 276 275 274 273 272 271 269 268 267 266 264 263 262 261 260 259 259 258 258 257 257 256 255 254 253
286 286 286 286 287 287 287 287 288 288 288 288 288 288 288 289 289 289 289 289 289 289 289 289 290 290 290 290 290 290 291 291 291 291 291 291 291 291 291 290 290 290 289 289 288 287 287 287 286 286 286 285 285 284 283 283 282 281 279 278 277 276 275 273 272 271 270 269 268 267 266 265 264 263 262 261 260 259 259 258 258 257 256 256 255 254
285 285 286 286 286 286 286 287 287 287 287 287 287 287 287 288 288 288 288 288 288 288 288 289 289 289 289 289 289 289 290 290 290 290 290 290 290 290 290 290 289 289 289 288 287 287 286 286 286 285 285 284 284 283 283 282 281 280 279 278 277 276 274 273 272 271 269 268 267 266 265 264 264 263 262 261 260 260 259 259 258 257 257 256 256 255
Height
10640 10638 10636 10635 10635 10633 10631 10630 10629 10628 10625 10623 10622 10620 10618 10616 10613 10611 10610 10609 10608 10606 10604 10602 10600 10598 10596 10594 10591 10590 10587 10585 10583 10580 10578 10576 10573 10571 10568 10566 10563 10561 10558 10555 10551 10548 10544 10540 10536 10533 10529 10525 10521 10517 10513 10508 10504 10500 10495 10491 10486 10482 10478 10474 10470 10466 10463 10460 10456 10453 10450 10447 10445 10442 10440 10439 10437 10436 10435 10434 10433 10432 10431 10431 10431 10431
10635 10633 10631 10630 10629 10628 10626 10624 10623 10622 10621 10619 10617 10615 10614 10611 10609 10607 10605 10603 10602 10601 10600 10598 10596 10594 10591 10590 10588 10585 10583 10580 10578 10576 10573 10571 10569 10566 10564 10561 10558 10556 10553 10550 10547 10543 10540 10536 10532 10528 10525 10521 10516 10513 10508 10504 10500 10495 10491 10486 10482 10478 10473 10470 10466 10462 10458 10455 10452 10450 10447 10444 10441 10440 10438 10436 10435 10433 10432 10431 10430 10430 10429 10429 10429 10429
10630 10628 10625 10624 10623 10622 10620 10619 10617 10616 10615 10613 10612 10610 10608 10606 10605 10602 10601 10599 10597 10596 10595 10593 10591 10590 10587 10585 10583 10581 10579 10576 10574 10571 10569 10566 10564 10561 10559 10556 10553 10551 10548 10546 10543 10539 10536 10532 10528 10524 10520 10516 10512 10508 10504 10499 10495 10490 10486 10482 10478 10473 10470 10466 10462 10458 10455 10451 10448 10445 10443 10441 10438 10436 10435 10433 10431 10431 10430 10428 10428 10427 10427 10426 10426 10426
10625 10623 10620 10619 10618 10616 10615 10614 10612 10611 10610 10608 10606 10605 10603 10601 10600 10598 10596 10595 10593 10591 10590 10588 10587 10585 10583 10581 10578 10576 10574 10572 10570 10567 10565 10562 10559 10556 10553 10551 10548 10546 10543 10541 10538 10535 10531 10528 10524 10520 10516 10512 10508 10503 10499 10495 10490 10486 10481 10478 10473 10469 10465 10461 10458 10455 10451 10448 10445 10441 10439 10437 10435 10433 10432 10430 10429 10428 10427 10426 10425 10425 10425 10425 10425 10425
10620 10618 10616 10614 10613 10611 10610 10608 10607 10606 10605 10603 10601 10600 10598 10596 10595 10593 10591 10589 10588 10586 10585 10583 10582 10580 10578 10576 10574 10571 10570 10568 10565 10563 10560 10558 10555 10551 10549 10546 10543 10541 10538 10536 10533 10530 10526 10523 10519 10515 10511 10508 10503 10499 10495 10490 10486 10481 10477 10473 10469 10465 10461 10457 10453 10450 10448 10445 10441 10438 10436 10434 10432 10430 10429 10428 10426 10425 10425 10424 10423 10423 10423 10422 10422 10423
10614 10613 10612 10610 10608 10606 10605 10603 10602 10601 10600 10598 10596 10595 10593 10591 10590 10588 10586 10585 10583 10581 10580 10578 10577 10575 10573 10571 10569 10567 10565 10563 10561 10558 10556 10553 10550 10547 10544 10541 10539 10536 10533 10531 10528 10525 10521 10518 10515 10511 10507 10503 10499 10495 10490 10485 10481 10476 10473 10469 10465 10461 10457 10453 10450 10446 10443 10441 10438 10436 10433 10431 10429 10428 10426 10425 10424 10423 10422 10421 10421 10421 10420 10420 10420 10420
10609 10608 10607 10605 10603 10601 10600 10599 10598 10596 10595 10593 10591 10590 10588 10586 10585 10583 10581 10580 10578 10577 10575 10573 10572 10571 10569 10567 10565 10562 10560 10558 10555 10553 10551 10548 10545 10543 10540 10537 10535 10531 10529 10526 10523 10520 10517 10513 10510 10506 10502 10498 10494 10490 10485 10481 10476 10472 10468 10465 10461 10458 10453 10450 10446 10443 10440 10438 10435 10433 10430 10428 10426 10425 10423 10423 10421 10421 10420 10420 10419 10418 10418 10418 10418 10418
10604 10602 10601 10600 10598 10596 10595 10593 10592 10591 10590 10589 10586 10584 10582 10581 10579 10578 10576 10575 10574 10572 10571 10568 10566 10565 10563 10562 10560 10558 10555 10553 10550 10548 10546 10543 10540 10538 10535 10532 10530 10527 10524 10521 10518 10515 10512 10509 10505 10501 10497 10493 10489 10485 10481 10476 10471 10468 10464 10460 10457 10453 10450 10446 10442 10439 10436 10434 10432 10430 10428 10425 10423 10422 10421 10420 10419 10418 10418 10417 10416 10416 10416 10416 10416 10416
10599 10598 10596 10594 10593 10591 10590 10587 10586 10585 10585 10584 10582 10580 10578 10576 10573 10571 10570 10569 10568 10568 10566 10564 10561 10559 10557 10556 10555 10553 10551 10548 10545 10543 10541 10539 10536 10533 10530 10527 10525 10522 10519 10516 10513 10510 10507 10504 10500 10496 10492 10488 10485 10480 10476 10471 10467 10463 10460 10456 10453 10450 10446 10442 10439 10436 10433 10431 10429 10426 10425 10423 10421 10420 10418 10418 10417 10416 10416 10415 10415 10415 10415 10415 10415 10415
10593 10592 10591 10589 10587 10586 10585 10583 10581 10579 10579 10578 10576 10575 10573 10571 10570 10566 10564 10562 10561 10561 10561 10560 10557 10555 10552 10550 10548 10547 10545 10543 10541 10538 10536 10534 10531 10528 10525 10523 10520 10517 10515 10511 10508 10505 10502 10499 10495 10491 10487 10483 10480 10475 10471 10467 10463 10459 10455 10452 10449 10446 10442 10439 10435 10432 10430 10427 10425 10424 10422 10420 10418 10417 10416 10415 10415 10414 10413 10413 10413 10413 10413 10413 10413 10413
10588 10586 10585 10583 10581 10580 10580 10578 10576 10575 10574 10573 10571 10568 10567 10566 10565 10563 10560 10556 10555 10555 10555 10553 10551 10550 10548 10546 10543 10541 10539 10537 10535 10533 10531 10528 10526 10523 10520 10518 10515 10512 10510 10506 10503 10500 10497 10494 10490 10486 10482 10478 10475 10470 10466 10462 10458 10455 10451 10448 10445 10441 10438 10435 10432 10429 10426 10424 10422 10421 10419 10418 10416 10415 10413 10413 10412 10411 10411 10411 10411 10411 10411 10411 10411 10411
10582 10581 10580 10578 10576 10575 10573 10572 10571 10570 10568 10568 10566 10563 10561 10560 10559 10558 10556 10553 10550 10550 10549 10547 10545 10544 10543 10542 10540 10536 10534 10532 10530 10528 10526 10523 10520 10518 10515 10512 10508 10506 10504 10501 10498 10495 10492 10489 10485 10481 10477 10473 10470 10466 10461 10458 10454 10450 10446 10443 10440 10438 10435 10432 10429 10426 10423 10421 10419 10418 10416 10415 10413 10412 10411 10410 10410 10410 10409 10409 10408 10408 10409 10409 10409 10410
10576 10576 10575 10573 10571 10570 10568 10567 10565 10564 10563 10562 10561 10559 10556 10554 10553 10552 10551 10548 10546 10545 10544 10542 10540 10538 10537 10536 10535 10532 10530 10526 10524 10522 10520 10518 10515 10513 10510 10507 10503 10500 10498 10496 10493 10490 10486 10483 10480 10475 10471 10468 10465 10461 10457 10453 10450 10446 10442 10439 10436 10433 10431 10428 10426 10423 10421 10418 10416 10415 10413 10412 10411 10410 10409 10408 10408 10407 10406 10406 10406 10406 10407 10407 10407 10408
10571 10570 10569 10567 10566 10565 10563 10562 10561 10559 10557 10556 10555 10554 10552 10550 10548 10547 10545 10543 10540 10539 10538 10537 10535 10533 10531 10531 10530 10528 10525 10521 10518 10516 10514 10512 10510 10507 10505 10502 10498 10495 10493 10491 10488 10485 10481 10478 10475 10470 10466 10463 10460 10456 10452 10448 10445 10441 10438 10435 10432 10430 10427 10425 10423 10420 10418 10416 10414 10412 10411 10410 10408 10407 10406 10406 10405 10405 10405 10405 10405 10405 10405 10405 10405 10406
10566 10565 10563 10562 10560 10559 10558 10557 10556 10554 10552 10551 10550 10549 10547 10545 10543 10541 10540 10538 10536 10534 10533 10531 10528 10526 10525 10524 10524 10523 10521 10517 10513 10510 10508 10506 10503 10501 10500 10496 10493 10490 10487 10485 10483 10479 10476 10473 10469 10465 10461 10458 10455 10451 10448 10444 10441 10437 10434 10431 10428 10426 10423 10421 10419 10417 10415 10413 10411 10410 10408 10407 10406 10405 10404 10403 10403 10403 10402 10402 10402 10403 10403 10403 10403 10404
10560 10560 10558 10556 10555 10553 10552 10551 10550 10549 10547 10545 10545 10543 10542 10540 10538 10536 10535 10533 10531 10529 10527 10525 10523 10521 10518 10516 10516 10516 10515 10513 10508 10504 10501 10500 10498 10495 10493 10491 10488 10485 10481 10479 10476 10473 10470 10467 10463 10460 10456 10453 10449 10446 10443 10440 10436 10433 10430 10427 10424 10421 10420 10418 10416 10414 10412 10410 10408 10407 10405 10404 10403 10402 10401 10401 10400 10400 10400 10400 10400 10401 10401 10401 10401 10402
10555 10554 10553 10551 10550 10548 10547 10546 10545 10543 10542 10540 10539 10538 10536 10535 10533 10531 10530 10528 10526 10524 10521 10520 10518 10516 10513 10511 10509 10508 10508 10506 10503 10499 10496 10493 10491 10489 10487 10485 10483 10480 10476 10474 10471 10468 10465 10461 10458 10455 10451 10448 10445 10441 10438 10435 10431 10428 10425 10423 10420 10418 10416 10414 10412 10411 10409 10407 10405 10404 10403 10401 10401 10400 10399 10398 10398 10398 10398 10398 10398 10398 10399 10400 10400 10400
10549 10548 10547 10546 10544 10543 10541 10540 10540 10538 10536 10535 10533 10532 10531 10529 10528 10526 10525 10523 10521 10519 10516 10514 10512 10510 10508 10506 10504 10502 10501 10500 10498 10493 10490 10488 10485 10483 10481 10479 10476 10473 10470 10468 10465 10462 10459 10455 10453 10450 10446 10443 10440 10436 10433 10430 10427 10424 10421 10418 10416 10414 10412 10410 10409 10408 10406 10404 10403 10401 10400 10399 10398 10398 10396 10396 10396 10396 10396 10396 10396 10396 10397 10397 10398 10398
10543 10542 10541 10540 10539 10537 10535 10535 10534 10533 10531 10530 10528 10526 10525 10523 10521 10520 10518 10517 10515 10513 10511 10509 10507 10505 10503 10501 10498 10496 10495 10494 10491 10488 10485 10482 10480 10478 10476 10474 10471 10468 10464 10461 10459 10456 10453 10450 10446 10444 10441 10438 10435 10431 10428 10425 10423 10420 10417 10415 10412 10410 10408 10407 10406 10405 10403 10401 10400 10398 10398 10396 10396 10395 10395 10394 10394 10393 10394 10394 10394 10395 10395 10395 10396 10396
10538 10536 10535 10535 10533 10532 10530 10528 10527 10527 10526 10525 10523 10521 10519 10517 10516 10515 10513 10511 10510 10508 10505 10503 10501 10499 10496 10495 10492 10490 10488 10488 10485 10482 10478 10476 10473 10471 10470 10468 10466 10462 10458 10456 10453 10450 10448 10444 10441 10438 10435 10433 10430 10427 10424 10421 10418 10416 10413 10411 10409 10406 10405 10403 10402 10401 10400 10398 10397 10396 10395 10394 10393 10393 10392 10391 10391 10391 10391 10392 10392 10393 10393 10393 10394 10395
10532 10531 10529 10528 10528 10527 10525 10522 10521 10520 10520 10519 10517 10515 10513 10511 10510 10508 10506 10505 10503 10501 10499 10497 10495 10493 10491 10489 10486 10484 10483 10481 10479 10476 10473 10470 10467 10465 10464 10463 10460 10456 10453 10450 10447 10445 10442 10439 10436 10433 10430 10428 10425 10422 10420 10416 10414 10411 10409 10407 10405 10403 10401 10400 10399 10398 10396 10395 10394 10393 10392 10391 10391 10390 10390 10390 10389 10389 10390 10390 10390 10391 10391 10391 10392 10393
10527 10525 10523 10522 10522 10521 10519 10517 10515 10515 10514 10513 10511 10510 10507 10506 10504 10502 10500 10498 10496 10495 10493 10491 10489 10487 10485 10483 10481 10479 10477 10475 10473 10471 10468 10465 10461 10459 10458 10456 10454 10451 10447 10444 10441 10439 10436 10433 10430 10428 10425 10423 10420 10418 10415 10412 10410 10407 10405 10403 10401 10400 10398 10397 10396 10395 10393 10393 10391 10390 10390 10388 10388 10388 10387 10387 10387 10387 10387 10388 10388 10388 10389 10390 10390 10391
10521 10520 10518 10516 10515 10515 10513 10511 10510 10508 10508 10506 10505 10504 10502 10500 10499 10497 10495 10493 10491 10489 10487 10485 10483 10481 10479 10477 10475 10473 10471 10469 10467 10465 10462 10459 10455 10453 10451 10451 10448 10445 10441 10438 10436 10434 10431 10428 10425 10423 10420 10418 10416 10413 10410 10408 10405 10403 10401 10400 10398 10396 10395 10394 10393 10391 10391 10390 10388 10388 10386 10386 10385 10385 10385 10385 10385 10385 10385 10385 10386 10386 10387 10387 10388 10388
10515 10514 10512 10511 10510 10508 10507 10505 10504 10503 10501 10500 10499 10498 10496 10495 10493 10491 10489 10487 10485 10483 10481 10479 10476 10474 10472 10470 10468 10466 10464 10462 10461 10459 10456 10453 10450 10447 10445 10444 10443 10440 10435 10433 10430 10428 10425 10423 10420 10418 10416 10413 10411 10408 10406 10403 10401 10399 10398 10396 10395 10393 10392 10391 10390 10389 10388 10386 10386 10385 10384 10383 10383 10383 10382 10382 10382 10382 10383 10383 10383 10384 10385 10385 10386 10386
10509 10508 10506 10505 10503 10502 10501 10500 10498 10497 10496 10495 10493 10491 10490 10488 10486 10485 10482 10480 10479 10477 10475 10473 10470 10467 10465 10464 10462 10460 10458 10456 10455 10453 10450 10448 10445 10441 10438 10438 10436 10434 10430 10427 10425 10422 10420 10417 10415 10413 10411 10408 10406 10404 10401 10399 10397 10395 10393 10392 10391 10390 10388 10388 10386 10386 10385 10384 10383 10382 10381 10381 10380 10380 10380 10380 10380 10380 10380 10381 10381 10382 10383 10383 10384 10385
10503 10501 10500 10499 10497 10496 10495 10493 10492 10491 10490 10488 10487 10485 10484 10482 10480 10478 10475 10473 10471 10470 10469 10466 10463 10460 10458 10457 10455 10454 10452 10450 10448 10446 10444 10441 10438 10435 10433 10431 10430 10428 10424 10421 10419 10416 10414 10411 10410 10408 10406 10404 10401 10400 10397 10395 10393 10391 10390 10388 10387 10386 10385 10384 10383 10383 10381 10381 10380 10380 10378 10378 10378 10377 10377 10377 10377 10378 10378 10378 10379 10380 10380 10381 10381 10382
10496 10495 10494 10493 10491 10490 10488 10487 10486 10485 10483 10482 10480 10479 10477 10476 10474 10471 10468 10466 10465 10463 10462 10460 10456 10454 10452 10450 10448 10447 10446 10444 10442 10440 10438 10435 10433 10429 10426 10425 10424 10421 10418 10415 10413 10411 10409 10406 10405 10403 10401 10399 10397 10395 10393 10391 10389 10387 10386 10385 10383 10383 10381 10381 10380 10379 10378 10378 10377 10376 10376 10375 10375 10375 10375 10375 10375 10375 10375 10376 10376 10377 10378 10378 10379 10380
10490 10489 10488 10486 10485 10483 10482 10481 10480 10478 10476 10475 10473 10472 10470 10469 10467 10465 10462 10460 10458 10457 10455 10453 10450 10448 10446 10444 10442 10440 10439 10438 10436 10435 10433 10430 10426 10423 10421 10420 10418 10415 10413 10410 10407 10405 10403 10401 10400 10398 10396 10394 10392 10390 10388 10386 10385 10383 10382 10381 10380 10379 10378 10377 10376 10376 10375 10375 10374 10373 10373 10373 10372 10372 10371 10372 10372 10372 10373 10373 10374 10375 10375 10376 10376 10378
10484 10483 10481 10480 10478 10477 10476 10475 10473 10471 10470 10468 10466 10465 10463 10462 10460 10458 10456 10454 10452 10450 10448 10446 10443 10441 10439 10437 10435 10433 10432 10431 10430 10429 10427 10424 10420 10416 10415 10413 10411 10410 10407 10404 10401 10399 10397 10396 10395 10393 10391 10389 10388 10386 10384 10382 10381 10380 10378 10378 10376 10375 10375 10374 10373 10373 10372 10371 10371 10370 10370 10370 10369 10369 10369 10369 10370 10370 10370 10371 10371 10372 10373 10373 10374 10375
10477 10476 10475 10473 10471 10470 10469 10468 10466 10465 10463 10461 10460 10458 10456 10455 10453 10451 10450 10447 10445 10443 10441 10439 10436 10435 10433 10431 10429 10427 10425 10423 10423 10422 10421 10418 10415 10411 10409 10408 10405 10403 10402 10399 10396 10393 10391 10390 10390 10388 10386 10385 10383 10381 10380 10378 10377 10376 10375 10374 10373 10372 10371 10370 10370 10369 10369 10368 10368 10367 10367 10366 10366 10366 10366 10366 10366 10367 10368 10368 10368 10370 10370 10371 10371 10373
10470 10468 10467 10466 10465 10463 10462 10461 10459 10457 10456 10454 10452 10451 10449 10448 10446 10444 10442 10440 10438 10436 10435 10432 10430 10428 10426 10424 10423 10421 10418 10416 10416 10415 10415 10412 10408 10405 10403 10401 10400 10397 10396 10394 10391 10388 10386 10384 10384 10383 10382 10380 10378 10376 10375 10374 10373 10371 10371 10370 10369 10368 10368 10367 10366 10366 10365 10365 10365 10364 10364 10363 10363 10363 10363 10363 10363 10364 10365 10365 10366 10366 10367 10368 10369 10370
10462 10461 10460 10459 10457 10456 10455 10453 10452 10450 10448 10447 10445 10443 10442 10440 10439 10437 10435 10433 10431 10430 10428 10426 10423 10421 10418 10417 10415 10414 10412 10410 10410 10409 10408 10405 10402 10399 10397 10396 10393 10391 10390 10388 10386 10384 10381 10379 10378 10378 10377 10375 10373 10371 10370 10370 10368 10368 10367 10366 10365 10365 10364 10363 10363 10363 10362 10361 10361 10361 10361 10360 10360 10360 10360 10360 10361 10361 10361 10362 10363 10364 10365 10365 10366 10367
10455 10454 10453 10451 10450 10449 10448 10446 10445 10443 10441 10440 10438 10436 10435 10433 10431 10430 10428 10426 10425 10423 10421 10419 10416 10414 10412 10410 10408 10406 10404 10403 10403 10402 10401 10398 10396 10393 10391 10390 10388 10385 10384 10382 10380 10378 10376 10374 10373 10372 10371 10370 10369 10367 10366 10365 10365 10363 10363 10362 10361 10361 10360 10360 10360 10359 10358 10358 10358 10358 10358 10357 10357 10357 10357 10357 10358 10358 10358 10359 10360 10361 10361 10362 10363 10364
10447 10446 10445 10444 10443 10441 10440 10438 10437 10436 10435 10433 10431 10430 10428 10426 10425 10423 10421 10419 10417 10415 10413 10411 10410 10408 10405 10403 10401 10398 10396 10396 10395 10395 10393 10391 10389 10387 10385 10383 10381 10380 10378 10376 10375 10373 10371 10369 10368 10367 10366 10365 10364 10363 10361 10361 10360 10360 10359 10358 10358 10357 10356 10356 10356 10355 10355 10355 10355 10355 10354 10354 10354 10354 10354 10354 10355 10355 10355 10356 10356 10358 10358 10359 10360 10361
10440 10438 10437 10436 10435 10433 10432 10431 10429 10428 10427 10426 10424 10423 10421 10420 10418 10416 10414 10411 10410 10408 10406 10404 10402 10400 10398 10396 10395 10392 10390 10388 10388 10387 10386 10385 10383 10381 10379 10377 10376 10375 10373 10371 10369 10367 10365 10364 10363 10362 10361 10360 10359 10358 10358 10356 10356 10355 10355 10354 10354 10353 10353 10353 10352 10352 10351 10351 10351 10351 10351 10351 10351 10351 10351 10351 10351 10351 10352 10353 10353 10354 10355 10356 10357 10358
10433 10431 10430 10428 10427 10426 10425 10423 10421 10420 10420 10418 10416 10415 10413 10412 10410 10408 10406 10405 10403 10401 10399 10396 10395 10393 10391 10390 10388 10386 10383 10382 10381 10380 10379 10378 10376 10374 10373 10371 10370 10369 10367 10365 10363 10362 10360 10358 10357 10356 10356 10355 10354 10353 10353 10352 10351 10351 10350 10350 10350 10350 10349 10349 10348 10348 10348 10348 10348 10348 10348 10347 10347 10347 10347 10348 10348 10348 10349 10350 10350 10351 10351 10353 10353 10355
10425 10424 10422 10420 10419 10418 10417 10415 10414 10413 10411 10411 10409 10408 10406 10405 10403 10401 10399 10397 10395 10393 10391 10389 10387 10385 10384 10382 10380 10379 10377 10376 10375 10373 10371 10370 10369 10368 10366 10365 10364 10363 10362 10360 10358 10356 10355 10353 10352 10351 10351 10350 10350 10348 10348 10348 10347 10346 10346 10346 10346 10345 10345 10345 10345 10345 10344 10344 10344 10344 10344 10344 10344 10344 10344 10344 10345 10345 10345 10346 10346 10347 10348 10349 10350 10351
10418 10416 10415 10413 10411 10410 10409 10408 10406 10405 10404 10403 10401 10400 10398 10396 10395 10393 10391 10389 10387 10385 10383 10381 10380 10378 10376 10375 10373 10372 10371 10370 10368 10366 10365 10364 10363 10361 10360 10359 10358 10357 10356 10355 10353 10351 10350 10348 10347 10346 10345 10345 10345 10344 10343 10343 10342 10341 10341 10341 10341 10341 10341 10341 10341 10340 10340 10340 10340 10340 10340 10340 10340 10340 10340 10341 10341 10341 10341 10342 10343 10344 10345 10345 10346 10347
10410 10408 10407 10405 10403 10402 10401 10400 10399 10397 10396 10395 10393 10392 10390 10389 10387 10385 10383 10381 10380 10378 10376 10374 10372 10370 10369 10368 10366 10365 10364 10363 10361 10360 10359 10358 10356 10355 10354 10353 10351 10351 10350 10350 10348 10346 10345 10343 10342 10341 10341 10340 10340 10339 10339 10338 10338 10337 10337 10336 10336 10336 10336 10336 10336 10336 10336 10336 10336 10336 10336 10336 10336 10337 10337 10337 10337 10338 10338 10338 10339 10340 10341 10341 10343 10343
10401 10400 10399 10397 10395 10394 10393 10392 10391 10390 10388 10386 10385 10384 10382 10380 10378 10376 10375 10373 10371 10370 10368 10366 10365 10363 10361 10361 10360 10358 10357 10356 10355 10354 10353 10351 10350 10349 10348 10347 10346 10345 10345 10343 10342 10341 10340 10338 10337 10336 10336 10335 10335 10334 10334 10334 10333 10333 10333 10332 10332 10332 10332 10333 10333 10332 10332 10332 10332 10333 10333 10333 10333 10333 10333 10333 10334 10334 10335 10335 10335 10336 10337 10338 10338 10340
10393 10392 10390 10388 10387 10386 10385 10384 10383 10381 10380 10378 10377 10375 10373 10372 10370 10368 10366 10365 10363 10361 10360 10358 10357 10356 10355 10353 10353 10351 10351 10350 10348 10347 10346 10345 10344 10343 10342 10341 10341 10340 10338 10338 10336 10335 10335 10333 10332 10331 10331 10330 10330 10330 10329 10329 10329 10328 10328 10328 10327 10327 10328 10328 10328 10328 10328 10328 10328 10328 10328 10329 10329 10329 10330 10330 10330 10330 10331 10331 10331 10332 10333 10334 10335 10335
10385 10384 10382 10380 10379 10378 10377 10376 10375 10373 10371 10370 10368 10367 10365 10364 10362 10360 10358 10356 10355 10353 10352 10351 10350 10348 10347 10346 10345 10345 10344 10343 10342 10341 10340 10339 10338 10337 10336 10336 10335 10334 10333 10332 10331 10330 10329 10328 10328 10326 10326 10326 10325 10325 10324 10324 10324 10324 10323 10323 10323 10323 10323 10323 10323 10324 10324 10324 10324 10324 10325 10325 10325 10325 10325 10326 10326 10326 10326 10327 10328 10328 10329 10330 10330 10331
10376 10375 10373 10372 10371 10370 10368 10367 10366 10364 10363 10361 10360 10358 10357 10356 10354 10353 10351 10349 10347 10346 10345 10343 10343 10341 10340 10339 10338 10338 10337 10336 10336 10335 10333 10332 10331 10331 10330 10330 10329 10328 10328 10326 10325 10324 10323 10323 10323 10322 10321 10321 10320 10320 10319 10319 10319 10319 10318 10318 10318 10318 10318 10318 10319 10319 10319 10320 10320 10320 10320 10320 10321 10321 10321 10321 10322 10322 10323 10323 10323 10324 10325 10325 10326 10327
10368 10366 10365 10363 10362 10361 10360 10358 10357 10356 10355 10353 10352 10350 10349 10348 10346 10345 10343 10341 10340 10338 10337 10336 10335 10335 10333 10332 10331 10331 10330 10330 10329 10328 10327 10326 10325 10325 10324 10324 10323 10323 10322 10321 10320 10319 10318 10318 10317 10316 10316 10316 10315 10315 10315 10315 10314 10314 10313 10313 10313 10313 10313 10313 10314 10315 10315 10315 10315 10316 10316 10316 10316 10317 10317 10317 10318 10318 10318 10319 10320 10320 10321 10321 10322 10323
10359 10357 10356 10355 10353 10352 10351 10350 10348 10347 10346 10345 10343 10342 10341 10340 10338 10337 10336 10334 10333 10331 10330 10330 10329 10328 10326 10325 10325 10325 10323 10323 10323 10322 10321 10320 10319 10319 10318 10318 10317 10316 10316 10315 10315 10313 10313 10312 10311 10311 10311 10311 10311 10310 10310 10310 10310 10309 10309 10309 10308 10308 10308 10309 10310 10310 10310 10310 10310 10311 10311 10312 10312 10312 10313 10313 10313 10314 10315 10315 10315 10316 10316 10317 10318 10318
10350 10348 10347 10346 10345 10343 10342 10341 10340 10339 10338 10336 10335 10335 10333 10332 10331 10330 10328 10327 10326 10325 10323 10323 10322 10321 10320 10319 10318 10318 10317 10316 10316 10315 10315 10314 10313 10312 10312 10311 10311 10311 10310 10310 10309 10308 10308 10307 10306 10306 10306 10305 10305 10305 10305 10305 10305 10304 10304 10304 10304 10303 10304 10304 10305 10305 10305 10305 10306 10306 10307 10307 10308 10308 10308 10308 10309 10310 10310 10310 10311 10311 10312 10313 10313 10314
10341 10340 10338 10337 10336 10335 10334 10333 10331 10331 10330 10328 10328 10326 10326 10325 10323 10322 10321 10320 10319 10318 10316 10316 10315 10315 10313 10313 10312 10311 10311 10310 10310 10309 10308 10308 10307 10306 10306 10305 10305 10305 10305 10304 10303 10303 10302 10301 10301 10301 10300 10300 10300 10300 10300 10300 10300 10300 10299 10299 10299 10299 10299 10299 10300 10300 10300 10301 10301 10301 10302 10303 10303 10303 10303 10304 10305 10305 10305 10306 10306 10307 10308 10308 10309 10310
10332 10331 10330 10329 10328 10326 10325 10324 10323 10323 10321 10320 10320 10318 10318 10317 10316 10315 10314 10313 10312 10311 10310 10309 10308 10308 10307 10306 10306 10305 10305 10304 10303 10303 10302 10301 10301 10300 10300 10300 10299 10299 10299 10298 10298 10297 10296 10296 10296 10296 10295 10295 10295 10295 10295 10295 10295 10295 10294 10294 10294 10294 10294 10294 10295 10295 10296 10296 10296 10297 10297 10298 10298 10298 10299 10300 10300 10300 10301 10301 10302 10303 10303 10304 10305 10306
10323 10323 10321 10321 10320 10318 10317 10316 10315 10315 10313 10312 10311 10311 10310 10309 10308 10308 10307 10306 10305 10305 10303 10303 10302 10301 10301 10300 10300 10299 10298 10298 10297 10296 10296 10296 10295 10294 10293 10293 10293 10293 10293 10293 10292 10291 10291 10291 10290 10290 10290 10290 10290 10290 10289 10289 10290 10290 10290 10290 10290 10290 10290 10290 10290 10290 10291 10291 10291 10292 10293 10293 10293 10294 10295 10295 10295 10295 10296 10296 10297 10298 10299 10300 10301 10301
10315 10314 10313 10313 10311 10311 10310 10308 10308 10306 10305 10305 10304 10303 10302 10301 10301 10300 10300 10299 10298 10298 10297 10296 10296 10295 10294 10293 10293 10293 10292 10292 10291 10291 10290 10290 10289 10288 10288 10287 10287 10286 10286 10286 10286 10286 10285 10285 10285 10285 10285 10285 10285 10285 10284 10283 10284 10284 10285 10285 10285 10285 10285 10285 10285 10286 10286 10286 10286 10287 10288 10288 10288 10289 10290 10290 10290 10290 10291 10292 10293 10293 10295 10295 10296 10297
10306 10305 10305 10304 10303 10303 10302 10301 10300 10299 10298 10297 10296 10295 10295 10294 10293 10293 10292 10292 10291 10291 10290 10290 10289 10288 10288 10287 10287 10286 10286 10286 10285 10285 10284 10284 10283 10283 10282 10281 10281 10281 10280 10280 10280 10280 10280 10279 10279 10279 10280 10280 10280 10280 10279 10278 10278 10279 10279 10280 10280 10280 10280 10280 10281 10281 10281 10281 10282 10282 10283 10283 10283 10284 10285 10285 10285 10286 10286 10287 10288 10288 10290 10291 10292 10293